COSMOS 1132

Satellite information

Favourite Embed

Satellite Type and Status

PAYLOADIN ORBIT

Key statistics

Satellite COSMOS 1132 at a glance.

Uptime

16722

Days in orbit

Revolutions

≈ 12.5

Per day

Orbit

LEO

Low Earth Orbit

Inclination

74.0

Latest

Satellite identification and parameters

Extended collection of information and parameters for COSMOS 1132.

Object identification

Identified? True

Debris? False

Object name: COSMOS 1132

International designator: 1979-084C

Object number (NORAD): 11540

Object ID (CCSDS): 11540

Country: COMMONWEALTH OF INDEPENDENT STATES (CIS)

Current information (Y/N): Y

RCS size: MEDIUM

Orbital parameters

Period: 114.955 minutes

Inclination: 74.0269 deg

SMA: 7831.517 km

Apoapsis: 1481.431 km

Periapsis: 1425.334 km

RAAN: 315.2578 deg

Eccentricy: 0.0035815

Argument of periapsis: 75.2511 deg

Mean anomaly: 355.0722 deg

Mean motion: 12.52661945 rev/day

Mean motion (dot): -0.00000022 rev/day2

B* drag term: -0.000038484 1/REarth

Two-line elements (TLE)

Creation date: July 6, 2025, 6:05 p.m.

Reference frame: TEME

Reference center: EARTH

Epoch: July 6, 2025, 12:19 p.m. UTC

TLE line 0: 0 COSMOS 1132

TLE line 1: 1 11540U 79084C 25187.51338554 -.00000022 00000-0 -38484-4 0 9993

TLE line 2: 2 11540 74.0269 315.2578 0035815 75.2511 355.0722 12.52661945 93383

Live tracking on map

Real-time ground track for satellite COSMOS 1132.

In-orbit conjunctions

A list of the most updated potential collisions computed for object COSMOS 1132.

Target Orbit TCA Probability of collision Miss distance Type
DELTA 1 DEB SSO 2025-01-18 15:03:16 0.0001566329 198.0 (m) DEBRIS
COSMOS 82 LEO 2024-06-20 16:08:25 0.0008936991 221.0 (m) PAYLOAD

Associated space launch

Biological research satellite carrying live organisms

COSMOS 1132 was lifted into orbit during the mission ‘Soyuz U | Bion 5’, on board a Soyuz U space rocket.

The launch took place on Sept. 25, 1979, 3:30 p.m. from 41/1.

For more information about the launch, click the button.

Launch to space Soyuz U | Bion 5
Soyuz U | Bion 5

Agency: N/A

Status: Launch Successful

Launch date: Sept. 25, 1979, 3:30 p.m. UTC

Rocket: Soyuz U

Launch pad: 41/1

Location: Plesetsk Cosmodrome, Russian Federation

...

Latest news about this satellite

There are no fresh news available about this satellite. Check back as we update our databases every day.


Newsletter sign-up

Weekly statistics, charts and insights to help you stay on top of the space industry.